Погода в Нова-Горице

Словения     45°57′45″N   13°38′57″E
темп.,
°C
ветер,
м/с
пор.,
м/с
влажн.,
%
обл.,
%
осадки,
мм/ч
давл.,
гПа
погр.,
м
15 мая, сб
сб1523:00+10в1194100 0.4 101116
02:00+9вюв2398100 0.9 1011107
05:00+9юв1198100 0.4 101145
08:00+9вюв1197100 0.6 101269
11:00+10с1197100 0.8 1012129
14:00+14юз2374100 1.1 1010964
17:00+13юз3479100 1.6 1009888
20:00+10ююз119452 2.5 101014
16 мая, вс
вс1623:00+9ююз1195100 0.4 101022
02:00+9св019687 0.9 100914
05:00+9в119596 0.1 100813
08:00+10вюв129596 0.3 1009172
11:00+11ююз129584 1.3 1010215
14:00+14юз2483100 2.8 1009856
17:00+12юз2394100 1.7 1008389
20:00+11юз01100100 5.8 100863
17 мая, пн
пн1723:00+11ююз12100100 3.9 1007144
02:00+11всв1299100 6.5 1006101
05:00+11всв2398100 4.1 1006103
08:00+10всв2498100 7.8 1009165
11:00+10всв2497100 1.1 1010269
14:00+12всв347696 1.7 1010704
17:00+12всв336697 0.0 1009744
20:00+10всв237979 0.0 1010157
18 мая, вт
вт1823:00+9всв3484100 0.1 1012119
02:00+9св3489100 0.7 1013151
05:00+8всв3491100 0.4 1013140
08:00+9всв2393100 0.8 1014104
11:00+10всв1292100 0.9 1014303
14:00+9св2396100 2.4 1013227
17:00+9св3495100 2.3 1012265
20:00+8в2398100 5.8 1012212
19 мая, ср
ср1923:00+6св2295100 0.7 101545
02:00+6всв1193100 0.7 101619
05:00+6всв1192100 0.0 101618
08:00+9ююз00830 0.0 1017215
11:00+13зюз216269 0.1 10171276
14:00+12юз227394 0.4 1017823
17:00+14зсз2268100 0.2 1016983
20:00+10ссв1186100 0.3 101816